| time (UTC) | temp F | wind direction | speed MPH | gust MPH | rain 1hr in | rain 24hr in | rain mn in | humidity % | barometer mb |
| 20260510100205 | 67 | 298 | 1.0 | 4.0 | 0.00 | 0.00 | 0.00 | 60 | 1006.1 |
| 20260510090206 | 67 | 318 | 0.0 | 2.0 | 0.00 | 0.00 | 0.00 | 63 | 1006.6 |
| 20260510080207 | 65 | 313 | 0.0 | 1.0 | 0.00 | 0.00 | 0.00 | 65 | 1006.5 |
| 20260510070207 | 61 | 127 | 0.0 | 0.0 | 0.00 | 0.00 | 0.00 | 71 | 1006.1 |
| 20260510060212 | 57 | 127 | 0.0 | 0.0 | 0.00 | 0.00 | 0.00 | 78 | 1006.0 |
| 20260510050207 | 55 | 127 | 0.0 | 0.0 | 0.00 | 0.00 | 0.00 | 81 | 1006.0 |
| 20260510040225 | 55 | 127 | 0.0 | 0.0 | 0.00 | 0.00 | 0.00 | 81 | 1006.1 |
| 20260510030211 | 57 | 127 | 0.0 | 0.0 | 0.00 | 0.00 | 0.00 | 78 | 1006.3 |
| 20260510020206 | 57 | 73 | 0.0 | 1.0 | 0.00 | 0.00 | 0.00 | 77 | 1006.4 |
| 20260510010206 | 56 | 306 | 0.0 | 0.0 | 0.00 | 0.00 | 0.00 | 81 | 1006.9 |
| 20260510000234 | 57 | 307 | 0.0 | 0.0 | 0.00 | 0.00 | 0.00 | 77 | 1007.1 |
| 20260509230206 | 60 | 307 | 0.0 | 0.0 | 0.00 | 0.00 | 0.00 | 71 | 1007.5 |
| 20260509210206 | 61 | 307 | 0.0 | 0.0 | 0.00 | 0.00 | 0.00 | 59 | 1008.0 |
| 20260509200206 | 65 | 307 | 0.0 | 0.0 | 0.00 | 0.00 | 0.00 | 52 | 1008.1 |
| 20260509190207 | 69 | 305 | 0.0 | 1.0 | 0.00 | 0.00 | 0.00 | 44 | 1007.9 |
| 20260509180236 | 71 | 323 | 1.0 | 7.0 | 0.00 | 0.00 | 0.00 | 39 | 1008.4 |
| 20260509170206 | 73 | 277 | 1.0 | 6.0 | 0.00 | 0.00 | 0.00 | 36 | 1008.2 |
| 20260509150206 | 75 | 276 | 0.0 | 5.0 | 0.00 | 0.00 | 0.00 | 27 | 1008.9 |
| 20260509130206 | 77 | 335 | 0.0 | 2.0 | 0.00 | 0.00 | 0.00 | 28 | 1010.5 |
| 20260509120205 | 77 | 340 | 0.0 | 5.0 | 0.00 | 0.00 | 0.00 | 32 | 1011.2 |
| 20260509110206 | 75 | 355 | 0.0 | 3.0 | 0.00 | 0.00 | 0.00 | 34 | 1011.8 |